SCP
0 0 0 0 0 0 0 0 0 0 0 0 0 0 0 0 0 0 0 0 0 0 0 0 0 0 0 0 0 0 0 0 0 0 0 0 0 0 0 0 0 0 0 0 0 0 0 0 0
0 0 0 0 0 0 0 0 0 0 0 0 0 0 0 0 0 0 0 0 0 0 0 0 1 0 0 0 0 0 0 0 0 0 0 0 0 0 0 0 0 0 0 0 0 0 0 0 0
0 0 0 0 0 0 0 0 0 0 0 0 0 0 0 0 0 0 0 0 0 0 0 0 0 0 0 0 0 0 0 0 0 0 0 0 0 0 0 0 0 0 0 0 0 0 0 0 0
0 0 0 0 0 0 0 0 0 0 0 0 0 0 0 0 0 0 0 0 0 0 0 0 0 0 0 0 0 0 0 0 0 0 0 0 0 0 0 0 0 0 0 0 0 0 0 0 0
0 0 0 0 0 0 0 0 0 0 0 0 0 0 0 0 0 0 0 0 0 0 0 0 0 0 0 0 0 0 0 0 0 0 0 0 0 0 0 0 0 0 0 0 0 0 0 0 0
0 0 0 0 0 0 0 0 0 0 0 0 0 0 0 0 0 0 0 0 0 0 0 0 0 0 0 0 0 0 0 0 0 0 0 0 0 0 0 0 0 0 0 0 0 0 0 0 0
0 0 0 0 0 0 0 0 0 0 0 0 0 0 0 0 0 0 0 0 0 0 0 0 0 0 0 0 0 0 0 0 0 0 0 0 0 0 0 0 0 0 0 0 0 0 0 0 0
0 0 0 0 0 0 0 0 0 0 0 0 0 0 0 0 0 0 0 0 0 0 0 0 0 0 0 0 0 0 0 0 0 0 0 0 0 0 0 0 0 0 0 0 0 0 0 0 0
0 0 0 0 0 0 0 0 0 0 0 0 0 0 0 0 0 0 0 0 0 0 0 0 0 0 0 0 0 0 0 0 0 0 0 0 0 0 0 0 0 0 0 0 0 0 0 0 0
0 0 0 0 0 0 0 0 0 0 0 0 0 0 0 0 0 0 0 0 0 0 0 0 0 0 0 0 0 0 0 0 0 0 0 0 0 0 0 0 0 0 0 0 0 0 0 0 0
0 0 0 0 0 0 0 0 0 0 0 0 0 0 0 0 0 0 0 0 0 0 0 0 0 0 0 0 0 0 0 0 0 0 0 0 0 0 0 0 0 0 0 0 0 0 0 0 0
0 0 0 0 0 0 0 0 0 0 0 0 0 0 0 0 0 0 0 0 0 0 0 0 0 0 0 0 0 0 0 0 0 0 0 0 0 0 0 0 0 0 0 0 0 0 0 0 0
0 0 0 0 0 0 0 0 0 0 0 0 0 0 0 0 0 0 0 0 0 0 0 0 0 0 0 0 0 0 0 0 0 0 0 0 0 0 0 0 0 0 0 0 0 0 0 0 0
0 0 0 0 0 0 0 0 0 0 0 0 0 0 0 0 0 0 0 0 0 0 0 0 0 0 0 0 0 0 0 0 0 0 0 0 0 0 0 0 0 0 0 0 0 0 0 0 0
0 0 0 0 0 0 0 0 0 0 0 0 0 0 0 0 0 0 0 0 0 0 0 0 0 0 0 0 0 0 0 0 0 0 0 0 0 0 0 0 0 0 0 0 0 0 0 0 0
0 0 0 0 0 0 0 0 0 0 0 0 0 0 0 0 0 0 0 0 0 0 0 0 0 0 0 0 0 0 0 0 0 0 0 0 0 0 0 0 0 0 0 0 0 0 0 0 0
0 0 0 0 0 0 0 0 0 0 0 0 0 0 0 0 0 0 0 0 0 0 0 0 1 1 1 0 0 0 0 0 0 0 0 0 0 0 0 0 0 0 0 0 0 0 0 0 0
0 0 0 0 0 0 0 0 0 0 0 0 0 0 0 0 0 0 0 0 0 0 0 0 1 1 1 1 0 0 0 0 0 0 0 0 0 0 0 0 0 0 0 0 0 0 0 0 0
0 0 0 0 0 0 0 0 0 0 0 0 0 0 0 0 0 0 0 0 0 0 1 1 1 1 1 1 1 0 0 0 0 0 0 0 0 0 0 0 0 0 0 0 0 0 0 0 0
0 0 0 0 0 0 0 0 0 0 0 0 0 0 0 0 0 0 0 0 1 1 1 1 1 1 1 1 1 1 1 0 0 0 0 0 0 0 0 0 0 0 0 0 0 0 0 0 0
0 0 0 0 0 0 0 0 0 0 0 0 0 0 0 0 0 0 0 1 1 1 1 1 1 1 1 1 1 1 1 1 0 0 0 0 0 0 0 0 0 0 0 0 0 0 0 0 0
0 0 0 0 0 0 0 0 0 0 0 0 0 0 0 0 0 0 0 0 0 0 1 1 1 1 1 1 1 1 1 1 1 1 0 0 0 0 0 0 0 0 0 0 0 0 0 0 0
0 0 0 0 0 0 0 0 0 0 0 0 0 0 0 0 0 0 0 0 0 0 1 1 1 1 1 1 1 1 1 1 1 1 1 0 0 0 0 0 0 0 0 0 0 0 0 0 0
0 0 0 0 0 0 0 0 0 0 0 0 0 0 0 0 0 0 0 0 0 0 1 1 1 1 1 1 1 1 1 1 1 1 1 0 0 0 0 0 0 0 0 0 0 0 0 0 0
0 0 0 0 0 0 0 0 0 0 0 0 0 0 0 0 0 0 0 0 1 1 1 1 1 1 1 1 1 1 1 1 1 1 1 0 0 0 0 0 0 0 0 0 0 0 0 0 0
0 0 0 0 0 0 0 0 0 0 0 0 0 0 0 0 0 0 0 1 1 1 1 1 1 1 1 1 1 1 1 1 1 1 1 1 0 0 0 0 0 0 0 0 0 0 0 0 0
0 0 0 0 0 0 0 0 0 0 0 0 0 0 0 0 1 1 1 1 1 1 1 1 1 1 1 1 1 1 1 1 1 1 1 1 0 0 0 0 0 0 0 0 0 0 0 0 0
0 0 0 0 0 0 0 0 0 0 0 0 0 0 0 1 1 1 1 1 1 1 1 1 1 1 1 1 1 1 1 1 1 1 1 1 0 0 0 0 0 0 0 0 0 0 0 0 0
0 0 0 0 0 0 0 0 0 0 0 0 0 0 1 1 1 1 1 1 1 1 1 1 1 1 1 1 1 1 1 1 1 1 1 1 0 0 0 0 0 0 0 0 0 0 0 0 0
0 0 0 0 0 0 0 0 0 0 0 0 0 0 1 1 1 1 1 1 1 1 1 1 1 1 1 1 1 1 1 1 1 1 1 1 0 0 0 0 0 0 0 0 0 0 0 0 0
Wind_Speed
10 9 7 6 7 2 8 8 7 7 6 6 5 4 6 8 8 8 7 8 9 11 12 12 9 9 8 8 8 8 8 8 8 8 8 8 7 7 8 8 8 8 8 8 9 9 9 9 9
6 6 7 7 4 4 8 7 8 8 7 5 5 4 5 7 7 7 8 9 10 11 11 11 10 9 9 8 8 8 8 8 8 7 8 7 7 7 7 8 8 8 8 8 8 9 9 8 8
6 7 7 4 2 5 8 7 7 7 5 3 4 5 5 6 5 5 8 11 11 11 11 13 10 9 9 8 8 7 7 7 7 7 7 7 7 7 7 7 8 8 7 8 8 9 9 8 8
6 7 6 2 5 7 7 6 5 4 4 4 4 6 6 6 4 7 11 12 11 11 11 13 9 9 9 8 7 7 7 7 7 6 6 6 6 7 7 7 7 7 7 8 9 9 9 8 8
7 6 4 2 5 6 5 5 2 3 4 4 3 6 8 7 7 10 11 11 10 10 10 13 9 9 8 7 7 7 6 6 6 6 6 6 6 6 6 6 7 6 6 7 8 8 8 8 7
6 5 3 2 5 5 5 3 1 2 4 5 4 5 7 7 7 9 10 9 9 9 10 12 11 8 7 7 6 6 6 6 6 6 5 6 6 5 6 6 6 6 7 7 8 8 8 7 7
6 3 1 1 3 4 4 3 2 2 3 4 2 4 7 8 8 8 9 9 9 8 9 10 11 10 8 6 6 6 6 6 6 6 5 5 5 5 5 5 5 6 6 7 7 7 7 6 6
5 4 3 1 1 3 4 2 3 2 4 4 1 2 6 9 9 10 9 9 8 8 8 8 8 8 8 8 7 6 6 5 5 5 5 4 4 5 5 5 6 6 6 6 6 6 6 6 5
6 6 2 0 1 2 3 1 2 1 3 3 3 5 8 13 12 11 10 9 9 8 7 7 7 7 6 7 8 7 6 5 5 5 5 4 3 4 5 7 6 6 6 6 6 5 5 5 6
5 5 1 2 3 2 2 2 1 2 3 3 4 7 10 12 12 11 10 10 10 9 8 6 6 6 6 5 5 4 4 4 3 3 3 3 2 2 3 8 6 6 6 6 5 4 5 5 4
4 4 1 1 2 2 2 2 1 3 2 1 3 7 10 11 11 10 9 8 9 9 8 7 6 5 5 4 4 2 2 3 3 3 2 2 2 2 3 3 5 5 5 3 5 5 2 2 2
4 2 3 2 2 3 3 2 2 2 2 2 3 8 11 11 10 9 8 8 8 8 8 7 7 6 5 4 3 3 2 2 2 3 2 2 1 2 2 1 2 2 2 2 1 1 3 3 2
6 3 2 2 3 3 3 3 3 2 1 2 6 9 10 9 9 8 7 7 7 7 8 7 6 6 5 4 3 3 2 2 3 2 2 1 2 2 2 2 1 1 2 2 1 2 2 2 1
2 3 3 4 3 2 3 3 4 1 2 4 6 8 9 8 8 8 7 7 7 7 7 7 7 6 5 4 3 3 3 2 2 2 2 1 2 2 2 2 2 2 1 2 2 2 1 1 2
4 5 6 5 4 3 4 5 4 1 3 4 6 6 7 7 7 7 7 7 7 7 7 7 7 7 6 5 5 4 3 3 2 2 3 2 2 3 2 2 2 1 2 2 1 1 1 1 2
8 9 8 4 3 3 7 5 2 2 3 4 5 5 6 6 7 6 7 7 6 7 7 8 7 8 7 5 4 3 3 3 2 2 3 3 2 2 1 2 2 2 1 1 1 0 1 1 1
10 9 8 5 3 4 6 5 1 1 3 4 5 5 6 6 6 6 6 7 7 7 7 8 8 8 8 7 5 4 3 2 2 2 2 3 3 2 2 1 2 1 1 1 1 1 0 1 1
7 8 7 6 3 5 7 5 3 3 4 5 5 5 6 6 6 6 6 7 7 7 7 8 8 8 7 6 5 4 4 3 2 2 2 2 2 3 2 2 2 1 1 1 1 1 0 0 0
6 8 7 5 2 6 7 6 5 4 5 5 5 6 5 5 5 5 6 7 7 7 7 8 9 8 7 6 6 5 5 4 3 3 3 2 2 3 2 2 3 1 1 1 1 1 2 1 0
9 10 8 6 3 6 7 8 6 5 5 5 5 5 6 5 5 5 5 6 7 7 7 8 8 8 8 6 5 4 4 4 3 2 3 2 2 3 3 2 2 2 1 1 1 1 1 0 1
10 10 8 7 5 8 9 10 8 6 5 5 5 5 5 5 5 5 5 5 6 7 7 6 7 7 7 7 6 5 4 4 4 3 3 2 3 3 2 2 1 1 2 2 1 1 2 1 1
10 7 9 9 9 8 8 9 7 7 6 6 6 5 5 4 4 5 5 5 5 6 7 6 6 7 7 7 7 7 6 5 4 3 3 3 3 3 3 2 2 1 1 1 2 1 2 2 1
8 5 8 10 11 12 10 11 6 6 7 7 6 5 4 4 4 4 4 5 5 5 5 6 6 6 7 7 7 7 6 5 4 4 4 3 3 3 3 3 2 2 1 1 0 0 2 2 2
7 7 8 10 11 14 11 11 7 5 5 4 5 4 3 3 4 4 3 4 4 5 5 5 6 6 6 7 7 7 6 5 5 5 5 4 4 3 3 3 2 2 1 2 1 1 2 1 2
9 9 8 10 11 10 5 9 6 2 2 3 3 4 3 3 3 4 4 3 4 5 5 5 5 6 6 7 7 7 7 7 6 6 5 4 4 3 3 2 2 2 2 2 1 2 1 1 2
10 12 10 9 10 7 6 8 4 3 2 2 3 3 3 3 2 3 3 4 4 4 5 5 5 5 5 6 6 6 7 6 5 5 4 4 3 3 4 3 3 3 3 3 2 2 2 1 2
10 11 11 13 14 12 7 6 5 5 5 4 3 2 2 2 2 2 2 3 4 4 4 5 5 5 4 5 6 6 6 5 4 5 5 4 3 3 4 4 4 4 3 3 3 2 3 2 3
10 8 8 11 11 13 10 10 7 6 5 4 4 3 2 1 1 1 2 3 3 4 4 5 5 5 5 5 5 5 6 5 5 5 4 4 4 3 4 4 4 4 4 4 4 4 2 3 2
8 9 10 10 10 11 10 5 3 1 1 2 2 1 1 1 2 2 2 2 3 3 4 5 4 4 4 4 4 5 6 7 7 6 6 5 5 5 5 5 5 5 5 5 4 4 3 4 3
8 9 9 9 10 11 11 4 5 3 3 3 2 1 0 1 2 2 2 3 3 3 3 4 4 4 4 4 5 5 5 6 6 6 6 6 5 5 5 5 5 5 5 5 5 5 4 4 4
Wind_Direction
186 197 223 239 234 140 72 63 56 62 59 55 53 41 42 33 25 60 93 119 123 128 127 136 128 127 125 120 117 113 110 112 113 111 107 103 98 96 101 103 102 107 112 119 123 123 122 121 123
196 208 233 241 264 96 77 59 55 51 65 78 84 71 70 68 56 92 122 127 134 127 131 129 127 130 126 122 119 117 114 112 111 112 111 110 103 97 98 100 98 102 110 115 121 123 122 120 121
207 236 260 254 37 55 71 62 60 65 80 79 85 58 49 60 80 106 121 141 137 130 127 119 132 131 128 124 122 119 116 114 114 113 108 105 103 99 97 98 96 99 106 112 117 117 117 116 118
232 228 235 247 84 61 55 62 66 80 87 80 92 93 81 54 58 101 124 139 136 131 126 123 134 132 129 127 123 118 116 115 115 114 110 105 102 99 100 97 95 96 101 110 113 112 113 112 115
243 254 223 145 87 73 65 57 53 61 82 87 93 99 92 75 81 113 131 137 136 131 127 125 129 129 129 127 122 118 113 110 114 116 114 107 102 98 101 98 94 95 104 108 111 110 110 114 116
242 247 238 132 98 85 76 64 63 63 93 97 108 105 94 103 113 127 133 137 133 132 129 127 134 133 130 126 120 115 110 109 110 110 112 108 105 101 100 99 94 94 96 97 103 105 107 107 109
273 269 274 109 103 98 65 54 45 58 92 92 105 110 114 121 126 135 136 137 135 136 136 139 143 144 140 126 120 118 112 108 106 106 110 111 109 106 102 100 99 100 100 98 103 107 109 108 109
285 262 211 178 134 82 71 73 48 16 75 82 120 124 128 134 143 144 144 143 142 143 140 142 144 144 150 140 128 124 115 111 110 111 112 118 129 133 131 129 106 105 105 100 103 104 106 108 111
257 248 224 116 340 74 68 57 66 57 110 105 68 49 100 134 149 153 152 152 147 145 144 146 143 144 149 137 131 140 135 131 147 143 143 177 163 143 146 95 97 103 105 102 100 104 115 133 136
244 248 280 17 353 28 36 3 6 192 162 137 111 96 122 145 156 163 162 160 157 154 151 150 147 148 146 132 136 147 149 143 158 128 145 154 111 106 101 109 114 112 114 123 124 151 183 203 148
245 270 344 329 348 332 322 355 327 259 247 180 160 144 149 157 165 169 165 162 159 156 155 155 151 152 150 140 143 143 142 137 146 128 134 109 128 137 137 133 142 142 155 145 149 184 170 89 64
232 251 280 297 323 294 305 313 314 306 329 20 115 150 158 166 171 172 168 166 164 163 164 161 160 161 159 143 145 151 153 139 130 129 161 143 138 120 110 119 110 131 112 98 96 79 74 67 64
223 224 226 253 266 288 284 267 289 292 313 100 126 147 160 166 169 170 168 169 171 170 167 164 167 159 157 151 161 150 148 140 132 128 128 147 147 138 119 102 90 91 97 128 98 76 72 74 89
226 222 226 235 242 225 242 251 243 253 146 140 141 158 168 168 168 165 170 173 176 176 174 165 173 165 164 161 162 156 156 148 140 125 116 145 131 117 126 130 117 105 92 65 65 89 94 66 59
215 218 221 223 232 227 241 234 226 166 176 170 161 161 168 173 171 174 176 177 177 178 177 173 173 168 169 168 170 164 161 158 148 128 132 142 139 125 135 125 138 115 106 112 114 102 109 125 106
215 224 226 196 207 216 245 247 159 145 200 192 175 167 170 171 178 180 179 178 176 179 178 178 174 169 169 171 173 170 168 159 154 143 138 135 130 135 155 133 123 121 142 148 132 157 115 86 75
214 230 233 206 190 228 246 263 217 203 221 202 186 178 176 169 177 182 184 178 175 177 179 180 178 174 171 168 169 173 162 166 162 152 149 141 147 149 162 126 102 161 156 164 185 94 359 84 68
230 240 237 238 198 240 249 258 249 244 239 215 197 187 182 181 183 179 180 177 176 172 178 180 179 176 173 171 171 175 167 169 170 153 143 148 152 158 174 146 137 182 159 151 100 112 61 332 326
271 259 250 245 230 255 251 253 245 237 242 225 207 198 194 192 179 173 175 175 175 172 174 181 183 175 178 180 181 179 177 173 165 157 145 153 166 165 186 162 151 194 148 184 197 199 174 198 230
248 249 246 235 215 264 259 258 245 226 228 227 218 204 200 194 176 169 172 174 179 177 179 181 184 180 185 181 183 182 180 172 162 158 141 164 171 182 175 178 172 162 157 168 200 231 264 227 285
240 252 259 260 254 238 255 245 218 207 210 210 215 216 204 198 191 182 182 183 184 184 183 185 187 183 187 182 180 174 174 179 171 172 165 176 173 168 173 174 186 183 193 157 210 230 259 275 240
244 247 261 256 255 247 238 262 208 197 203 207 208 208 203 195 194 189 187 185 189 189 182 181 181 184 184 187 189 186 184 183 180 179 167 169 172 171 168 175 174 209 215 169 209 189 267 269 269
260 264 257 255 258 263 237 253 233 189 215 208 204 204 210 202 196 186 188 187 186 183 182 176 175 181 184 191 189 194 195 186 177 176 165 178 167 179 171 171 177 188 205 172 206 195 269 266 287
244 240 237 243 248 248 243 251 253 215 227 220 200 196 204 204 192 185 184 178 175 172 172 170 172 178 182 189 191 195 194 193 183 181 177 188 177 174 171 177 182 194 183 175 196 235 219 277 299
225 241 237 229 228 243 223 246 255 225 231 244 217 205 196 201 201 190 177 171 175 174 173 166 168 178 181 186 190 192 194 196 195 193 186 195 184 176 174 188 194 195 183 190 198 212 244 238 258
225 241 256 267 266 258 214 240 244 159 201 235 231 215 199 199 201 202 185 175 175 175 174 168 170 178 182 185 188 193 198 198 195 201 203 195 196 180 171 191 197 201 199 201 200 219 216 211 241
237 238 258 268 270 267 252 242 221 202 211 225 227 216 197 200 197 193 172 172 171 175 176 171 169 172 180 184 187 192 199 204 199 195 207 201 196 190 182 192 197 201 203 210 213 225 229 219 235
260 256 244 249 262 263 251 245 243 212 222 226 235 235 208 197 175 159 154 155 165 170 170 169 171 175 180 186 193 188 191 191 201 212 202 208 206 201 198 196 198 201 201 206 218 219 216 232 244
218 227 242 255 262 269 268 258 27 6 317 286 275 271 222 204 172 159 152 148 157 164 167 165 170 178 184 191 198 195 195 194 198 205 207 203 205 205 208 208 208 207 207 206 214 227 219 232 241
255 250 243 251 252 254 267 268 72 50 8 341 328 332 351 183 157 148 141 141 149 159 171 169 174 183 191 196 198 196 202 203 203 205 209 207 206 210 211 214 215 216 210 211 217 225 223 231 239